Showing default

VRSS-1, 38782

Orbit data source: Space-Track

VRSS-1, 38782 is a payload satellite owned by ABAE (VE) in SSO that was launched on Sat, 29 Sep 2012 UTC via a CHANG ZHENG 2D launch vehicle from the Jiuquan Satellite Launch Center, China (JSC). Payload-class satellites include a variety of spacecraft equipped with specific instruments for various scientific and technological missions. These include communications satellites like Starlink; space stations such as the ISS; scientific satellites like the Hubble; Earth observation satellites from companies like Planet Labs, Umbra, and HawkEye 360; GPS; miniature CubeSats for education and research; and military/defense satellites.

Loading next visibility...
Identifier
38782, 2012-052A
Orbit
SSO
Country
Flag of VEVE / VENZ
Related business
Manufacturer
DFH
Mission
Operational Civil Imaging
Bus & Motor
CAST-2000, AOCS
Mass
880 kg wet, ~880 kg dry
Launch date (UTC)
2012-09-29 (14 years ago)
Launch vehicle
CHANG ZHENG 2D
Launch site
Jiuquan Satellite Launch Center, China (JSC)
Object type
Payload
Rocket body
Debris
Shape & HBR
Box + 2 Pan, 2.0 m
Radar Cross Section
4.991 m², Large (>1 m²)

Expand to show TLE details & history
Last TLE update: 9 hours ago

TLE from 9 hours ago
0 VRSS-1
1 38782U 12052A   26126.23227384  .00001648  00000-0  22411-3 0  9998
2 38782  97.6137 104.7211 0018483  18.9668 341.2229 14.79943044733406
Epoch: 2026-05-06T05:34Z
TLE epoch observation values (Epoch: 2026-05-06T05:34:28.459Z)
Latitude
-0.00006°
Longitude
157.00681°
Altitude
620.271 km
Speed
7.555 km/s
True Right ascension
06h 58m 53s
True Declination
0° 00' 00"
Sunlit
Object was in daylight at epoch
Visualization orbit readout
Latitude
Unknown
Longitude
Unknown
Altitude
Unknown
Speed
Unknown
Apparent Right ascension
Unknown
Apparent Declination
Unknown
Sunlit
N/A
Visualization observer readout
Local Sidereal Time
22:46:13
Azimuth
Unknown
Elevation
Unknown
Doppler factor
Unknown
Orbital elements
Apogee altitude
639.479 km
Perigee altitude
613.586 km
Semi-major axis
7,004.669 km
Eccentricity
0.00185
Inclination
97.6137°
RAAN
104.7211°
Arg. of periapsis
18.9668°
True anomaly
341.15457°
Mean anomaly
341.2229°
Eccentric anomaly
341.18875°
Mean motion
3.70222 °/min
Orbital period
97.24 mins
BSTAR
0.00022411
Loading maneuver chart data...
Computing Atmospheric mass density...
Loading historical data...
Loading historical data...
Loading historical data...
Loading historical data...
Loading historical data...
Loading historical data...
Loading historical data...
Other satellites on launch #52 in the year 2012 (2012-09-29 UTC)

Documentation

Showing up to 5 results
|